Flag for South Korea Weather past 2 weeks in Incheon, South Korea

Now
82 °F

Broken clouds.


Feels Like: 85 °F
Forecast: 75 / 86 °F
Wind: 12 mph from Southwest

Location: Incheon International Airport

Current Time: Aug 5, 2015 at 12:22:08 PM

Latest Report: Aug 5, 2015 at 11:30 AM


Visibility: N/A

Pressure: 29.77 "Hg

Humidity: 62%

Dew point: 68 °F

Location of IncheonLocation

Historic Weather in Incheon — Graph

°F

Incheon temperature yesterday

Maximum temperature yesterday: 84 °F (at 11:30 AM)
Minimum temperature yesterday: 77 °F (at 12:00 AM)
Average temperature yesterday: 80 °F

Past Weeks' High & Low Weather Summary

 TemperatureHumidityPressure
High88 °F (Jul 30, 1:30 PM)94% (Jul 24, 4:30 AM)29.83 "Hg (Jul 24, 4:30 AM)
Low72 °F (Jul 24, 8:00 AM)55% (Jul 21, 4:30 PM)29.62 "Hg (Jul 24, 6:00 AM)
Average78 °F80%29.74 "Hg
* Reported Jul 21 11:00 AM — Aug 5 11:00 AM, Incheon, Weather by CustomWeather, © 2015

Note: Actual official high and low records may vary slightly from our data, if they occured in-between our weather recording intervals... More about our weather records

Advertising

Incheon weather history for previous 24 hours

 ConditionsComfort  
Time TempWeatherWind HumidityBarometerVisibility
11:00 AM
Wed, Aug 5
82 °FBroken clouds.15 mph66%29.74 "HgN/A
10:30 AM81 °FBroken clouds.13 mph70%29.71 "HgN/A
10:00 AM81 °FBroken clouds.10 mph66%29.77 "HgN/A
9:30 AM81 °FBroken clouds.14 mph70%29.80 "HgN/A
9:00 AM79 °FBroken clouds.13 mph70%29.80 "HgN/A
8:30 AM81 °FBroken clouds.12 mph66%29.77 "HgN/A
8:00 AM79 °FBroken clouds.14 mph74%29.74 "HgN/A
7:30 AM77 °FBroken clouds.15 mph83%29.74 "Hg6 mi
6:30 AM77 °FMostly cloudy.14 mph83%29.74 "Hg5 mi
6:00 AM77 °FMostly cloudy.13 mph83%29.71 "Hg5 mi
5:30 AM77 °FPartly cloudy.14 mph83%29.71 "Hg4 mi
5:00 AM77 °FPartly cloudy.14 mph83%29.71 "Hg4 mi
4:30 AM77 °FPartly cloudy.16 mph83%29.68 "Hg4 mi
4:00 AM77 °FMostly cloudy.18 mph83%29.68 "Hg4 mi
3:30 AM77 °FMostly cloudy.18 mph83%29.68 "Hg4 mi
3:00 AM77 °FMostly cloudy.14 mph83%29.71 "Hg4 mi
2:30 AM77 °FPartly cloudy.14 mph83%29.71 "Hg5 mi
2:00 AM79 °FPartly cloudy.13 mph79%29.71 "Hg5 mi
1:30 AM79 °FPartly cloudy.13 mph79%29.71 "Hg5 mi
1:00 AM77 °FPartly cloudy.9 mph83%29.71 "Hg5 mi
12:30 AM79 °FPartly cloudy.10 mph79%29.71 "Hg5 mi
12:00 AM79 °FPartly cloudy.9 mph79%29.71 "Hg5 mi
11:30 PM
Tue, Aug 4
77 °FPartly cloudy.9 mph83%29.71 "Hg5 mi
11:00 PM77 °FPartly cloudy.10 mph83%29.71 "Hg5 mi
10:30 PM79 °FPartly cloudy.9 mph79%29.71 "Hg5 mi
10:00 PM79 °FPartly cloudy.14 mph79%29.71 "Hg5 mi
9:30 PM79 °FPartly cloudy.10 mph79%29.71 "Hg6 mi
9:00 PM79 °FPartly cloudy.14 mph79%29.71 "Hg6 mi
8:30 PM79 °FMore clouds than sun.17 mph79%29.68 "Hg6 mi
8:00 PM79 °FBroken clouds.18 mph79%29.68 "Hg6 mi
7:30 PM79 °FBroken clouds.17 mph79%29.68 "Hg6 mi
7:00 PM81 °FBroken clouds.20 mph74%29.68 "Hg6 mi
6:30 PM81 °FBroken clouds.16 mph74%29.68 "HgN/A
6:00 PM81 °FPartly sunny.15 mph74%29.68 "HgN/A
5:30 PM82 °FScattered clouds.17 mph70%29.68 "HgN/A
5:00 PM81 °FBroken clouds.17 mph74%29.68 "HgN/A
4:30 PM82 °FBroken clouds.18 mph70%29.68 "HgN/A
4:00 PM84 °FScattered clouds.18 mph66%29.68 "HgN/A
3:30 PM84 °FScattered clouds.18 mph66%29.68 "HgN/A
3:00 PM84 °FScattered clouds.20 mph66%29.68 "HgN/A
2:30 PM84 °FBroken clouds.20 mph66%29.68 "HgN/A
2:00 PM84 °FBroken clouds.23 mph66%29.68 "HgN/A
1:30 PM84 °FScattered clouds.21 mph66%29.68 "HgN/A
1:00 PM84 °FBroken clouds.23 mph66%29.68 "HgN/A
12:00 PM84 °FScattered clouds.26 mph66%29.71 "HgN/A
Weather by CustomWeather, © 2015

See weather overviewHow to use our weather pages